Location: Acheville
(50.3840°N, 2.8827°E)
Time: 12:51:36
(UTC+00:00)

Spot 2 - Pass Details

Date: 24 October 2021
Orbit: 570 x 773 km, 98.7° (Epoch: 05 December)

Event Time Altitude Azimuth Distance (km) Brightness Sun altitude
Rises 17:45:57 0° 148° (SSE) 2,816 7.2 -11.3°
Reaches altitude 10° 17:48:06 10° 142° (SE) 1,940 6.3 -11.7°
Maximum altitude 17:52:09 49° 68° (ENE) 807 4.3 -12.3°
Drops below altitude 10° 17:56:27 10° 354° (N) 2,061 6.8 -13.0°
Sets 17:58:47 0° 349° (N) 3,012 7.7 -13.4°
